Regional Weather Roundup
Issued by NWS

Home | Current Version | Previous Version | Graphics & Text | Print | Product List | Glossary On
Versions: 1 2 3 4 5 6 7 8 9 10 11 12 13 14 15 16 17 18 19 20 21 22 23 24 25 26 27 28 29 30 31 32 33 34 35 36 37 38 39 40 41 42 43 44 45 46 47 48 49 50
000
ASUS44 KMEG 261910
RWRTN
TENNESSEE HOURLY STATE WEATHER ROUNDUP
NATIONAL WEATHER SERVICE MEMPHIS TN
200 PM CDT THU APR 26 2018

TNZ002-004-019-021-049-052-054-088>092-262000-
WEST TENNESSEE

CITY           SKY/WX    TMP DP  RH WIND       PRES   REMARKS
MEMPHIS INTL   CLOUDY    61  57  87 NW8       29.88S
NWS MEMPHIS      N/A     60 N/A N/A MISG        N/A
JACKSON        CLOUDY    62  57  83 N13       29.86S
DYERSBURG      CLOUDY    61  56  83 N10       29.90S
SOMERVILLE     CLOUDY    63  59  88 N9G15     29.84S
UNION CITY     CLOUDY    59  52  77 N8        29.89S
BOLIVAR        PTSUNNY   59  57  94 N7        29.84S
PARIS          PTSUNNY   57  55  94 NE9       29.89S
HUNTINGDON     PTSUNNY   59  57  94 NE6G13    29.88R
LEXINGTON      CLOUDY    61  54  77 N10       29.85S
SAVANNAH       PTSUNNY   59  57  94 E3        29.83S FOG
$$

TNZ008-025-027-028-033-062-065-066-262000-
NORTH MIDDLE TENNESSEE

CITY           SKY/WX    TMP DP  RH WIND       PRES   REMARKS
NASHVILLE      LGT RAIN  59  54  83 VRB3      29.87F
PORTLAND       CLOUDY    59  54  82 SE6       29.88R
CLARKSVILLE    LGT RAIN  57  53  86 W3        29.88S
SMYRNA         LGT RAIN  58  53  84 CALM      29.88F
COOKEVILLE     CLOUDY    57  50  77 SE5       29.87R
LIVINGSTON     PTCLDY    59  48  67 VRB7      29.85F
GALLATIN       CLOUDY    59  52  77 CALM      29.92R
CROSSVILLE     LGT RAIN  52  46  80 SE9       29.88F
$$

TNZ061-075-076-078-094-096-097-262000-
SOUTH MIDDLE TENNESSEE

CITY           SKY/WX    TMP DP  RH WIND       PRES   REMARKS
LEWISBURG      MOCLDY    57  54  88 NE6       29.84S
FAYETTEVILLE   CLOUDY    54  54 100 NE6       29.83R FOG
TULLAHOMA      CLOUDY    55  50  82 E8        29.83F
WINCHESTER     PTSUNNY   55  50  82 CALM      29.83F HAZE
MCMINNVILLE    MOSUNNY   55  52  88 E3        29.86F
COLUMBIA       CLOUDY    59  55  88 NE10      29.84S
SHELBYVILLE    MOSUNNY   57  52  82 NE7       29.84F
$$

TNZ017-018-042-046-047-262000-
NORTHEAST TENNESSEE

CITY           SKY/WX    TMP DP  RH WIND       PRES   REMARKS
TRI CITIES     CLOUDY    62  47  57 W7        29.87F
ELIZABETHTON   CLOUDY    61  46  59 NW8       29.87R
$$

TNZ012-013-036-069-073-074-262000-
CENTRAL EAST TENNESSEE

CITY           SKY/WX    TMP DP  RH WIND       PRES   REMARKS
KNOXVILLE      LGT RAIN  56  52  86 SE3       29.89F
OAK RIDGE      LGT RAIN  58  55  90 CALM      29.90F
DOWNTOWN KNOXV MOSUNNY   59  54  82 CALM      29.90F
GATLINBURG     MOSUNNY   57  52  82 CALM      29.90F HAZE
MORRISTOWN     CLOUDY    55  48  76 CALM      29.90S HAZE
JACKSBORO      PTSUNNY   57  50  77 CALM      29.93F
$$

TNZ083-085-099-262000-
SOUTHEAST TENNESSEE

CITY           SKY/WX    TMP DP  RH WIND       PRES   REMARKS
CHATTANOOGA    PTSUNNY   57  52  83 NE8       29.86F
DAYTON         CLOUDY    55  55 100 NE5       29.87F
$$

SKY/WX REPORTED AS FAIR MEANS FEW OR NO CLOUDS BELOW
12 THOUSAND FEET.





USA.gov is the U.S. government's official web portal to all federal, state and local government web resources and services.